Houston / Dunn Helistop, TX
on Thursday, October 12, 2017

Thursday
       
Previous Day Next Day
Daily Summary
 ActualAverage (KHOU)Record (KHOU)
Temperature
Mean Temperature °F °C °F °C  
Max Temperature 93°F 34°C 79°F 26°C 96°F 35°C (1991)
Min Temperature 69°F 21°C 61°F 16°C 42°F 5°C (1977)
Cooling Degree Days 16    
Growing Degree Days31 (Base °F °C )  
Moisture
Dew Point 63°F 17°C   
Average Humidity 60    
Maximum Humidity 89    
Minimum Humidity 41    
Precipitation
Precipitation 0.00 in / 0.00 cm in / cm in / cm ()
Wind
Wind Speed 3 mph / 5 km/h   
Max Wind Speed 12 mph / 19 km/h   
Max Gust Speed 14 mph / 23 km/h   
Visibility 9 miles / 15 kilometers   
Events     
Averages and records for this station are not official NWS values.
Key: T is trace of precipitation, MM is missing value
Source: NWS Daily Summary
Seasonal Weather Averages
Time(CDT)TemperatureDew PointHumidity Pressure Visibility Wind DirectionWind SpeedGust SpeedPrecipitationEvents Conditions
12:15 AM 71.6°F 22.0°C 55.4°F 13.0°C 57% 30.07 in / 1018.2 hPa 10.0 miles / 16.1 kilometers North 6.9 mph / 11.1 km/h - N/A   Clear
12:35 AM 71.6°F 22.0°C 55.4°F 13.0°C 57% 30.07 in / 1018.2 hPa 10.0 miles / 16.1 kilometers Calm Calm - N/A   Clear
12:55 AM 71.6°F 22.0°C 55.4°F 13.0°C 57% 30.07 in / 1018.2 hPa 10.0 miles / 16.1 kilometers Calm Calm - N/A   Clear
1:15 AM 71.6°F 22.0°C 55.4°F 13.0°C 57% 30.07 in / 1018.2 hPa 10.0 miles / 16.1 kilometers Calm Calm - N/A   Clear
1:35 AM 71.6°F 22.0°C 55.4°F 13.0°C 57% 30.06 in / 1017.8 hPa 10.0 miles / 16.1 kilometers North 6.9 mph / 11.1 km/h - N/A   Clear
1:55 AM 71.6°F 22.0°C 55.4°F 13.0°C 57% 30.06 in / 1017.8 hPa 10.0 miles / 16.1 kilometers North 8.1 mph / 13.0 km/h - N/A   Clear
2:15 AM 71.6°F 22.0°C 55.4°F 13.0°C 57% 30.05 in / 1017.5 hPa 10.0 miles / 16.1 kilometers North 5.8 mph / 9.3 km/h - N/A   Clear
2:35 AM 71.6°F 22.0°C 55.4°F 13.0°C 57% 30.05 in / 1017.5 hPa 10.0 miles / 16.1 kilometers North 3.5 mph / 5.6 km/h - N/A   Clear
2:55 AM 71.6°F 22.0°C 55.4°F 13.0°C 57% 30.05 in / 1017.5 hPa 10.0 miles / 16.1 kilometers North 8.1 mph / 13.0 km/h - N/A   Clear
3:15 AM 69.8°F 21.0°C 55.4°F 13.0°C 60% 30.05 in / 1017.5 hPa 10.0 miles / 16.1 kilometers North 6.9 mph / 11.1 km/h - N/A   Clear
3:35 AM 69.8°F 21.0°C 55.4°F 13.0°C 60% 30.05 in / 1017.5 hPa 10.0 miles / 16.1 kilometers North 8.1 mph / 13.0 km/h - N/A   Clear
3:55 AM 69.8°F 21.0°C 57.2°F 14.0°C 64% 30.05 in / 1017.5 hPa 10.0 miles / 16.1 kilometers Calm Calm - N/A   Clear
4:15 AM 69.8°F 21.0°C 55.4°F 13.0°C 60% 30.05 in / 1017.5 hPa 10.0 miles / 16.1 kilometers Calm Calm - N/A   Clear
4:35 AM 69.8°F 21.0°C 57.2°F 14.0°C 64% 30.05 in / 1017.5 hPa 10.0 miles / 16.1 kilometers Calm Calm - N/A   Clear
4:55 AM 69.8°F 21.0°C 57.2°F 14.0°C 64% 30.05 in / 1017.5 hPa 10.0 miles / 16.1 kilometers North 5.8 mph / 9.3 km/h - N/A   Clear
5:35 AM 69.8°F 21.0°C 57.2°F 14.0°C 64% 30.05 in / 1017.5 hPa 10.0 miles / 16.1 kilometers North 5.8 mph / 9.3 km/h - N/A   Clear
5:55 AM 69.8°F 21.0°C 57.2°F 14.0°C 64% 30.05 in / 1017.5 hPa 10.0 miles / 16.1 kilometers Calm Calm - N/A   Clear
6:15 AM 69.8°F 21.0°C 57.2°F 14.0°C 64% 30.05 in / 1017.5 hPa 10.0 miles / 16.1 kilometers Calm Calm - N/A   Clear
6:35 AM 69.8°F 21.0°C 57.2°F 14.0°C 64% 30.05 in / 1017.5 hPa 10.0 miles / 16.1 kilometers Calm Calm - N/A   Clear
6:55 AM 69.8°F 21.0°C 57.2°F 14.0°C 64% 30.06 in / 1017.8 hPa 10.0 miles / 16.1 kilometers Calm Calm - N/A   Clear
7:15 AM 69.8°F 21.0°C 57.2°F 14.0°C 64% 30.06 in / 1017.8 hPa 10.0 miles / 16.1 kilometers Calm Calm - N/A   Clear
7:35 AM 69.8°F 21.0°C 57.2°F 14.0°C 64% 30.06 in / 1017.8 hPa 10.0 miles / 16.1 kilometers Calm Calm - N/A   Clear
7:55 AM 69.8°F 21.0°C 59.0°F 15.0°C 68% 30.07 in / 1018.2 hPa 10.0 miles / 16.1 kilometers Calm Calm - N/A   Clear
8:15 AM 71.6°F 22.0°C 59.0°F 15.0°C 64% 30.07 in / 1018.2 hPa 10.0 miles / 16.1 kilometers Calm Calm - N/A   Clear
8:35 AM 71.6°F 22.0°C 59.0°F 15.0°C 64% 30.07 in / 1018.2 hPa 10.0 miles / 16.1 kilometers Calm Calm - N/A   Clear
8:55 AM 73.4°F 23.0°C 59.0°F 15.0°C 61% 30.08 in / 1018.5 hPa 9.0 miles / 14.5 kilometers Calm Calm - N/A   Clear
9:15 AM 73.4°F 23.0°C 59.0°F 15.0°C 61% 30.09 in / 1018.8 hPa 9.0 miles / 14.5 kilometers Calm Calm - N/A   Clear
9:35 AM 75.2°F 24.0°C 60.8°F 16.0°C 61% 30.10 in / 1019.2 hPa 9.0 miles / 14.5 kilometers North 3.5 mph / 5.6 km/h - N/A   Clear
9:55 AM 77.0°F 25.0°C 60.8°F 16.0°C 57% 30.09 in / 1018.8 hPa 9.0 miles / 14.5 kilometers Calm Calm - N/A   Clear
10:15 AM 78.8°F 26.0°C 60.8°F 16.0°C 54% 30.10 in / 1019.2 hPa 8.0 miles / 12.9 kilometers Calm Calm - N/A   Clear
10:35 AM 80.6°F 27.0°C 62.6°F 17.0°C 54% 30.10 in / 1019.2 hPa 9.0 miles / 14.5 kilometers Calm Calm - N/A   Clear
10:55 AM 82.4°F 28.0°C 62.6°F 17.0°C 51% 30.09 in / 1018.8 hPa 9.0 miles / 14.5 kilometers Calm Calm - N/A   Clear
11:15 AM 84.2°F 29.0°C 62.6°F 17.0°C 48% 30.09 in / 1018.8 hPa 9.0 miles / 14.5 kilometers Calm Calm - N/A   Clear
11:35 AM 84.2°F 29.0°C 64.4°F 18.0°C 51% 30.09 in / 1018.8 hPa 9.0 miles / 14.5 kilometers Calm Calm - N/A   Clear
11:55 AM 86.0°F 30.0°C 64.4°F 18.0°C 48% 30.08 in / 1018.5 hPa 9.0 miles / 14.5 kilometers Calm Calm - N/A   Clear
12:15 PM 86.0°F 30.0°C 66.2°F 19.0°C 51% 30.07 in / 1018.2 hPa 8.0 miles / 12.9 kilometers Calm Calm - N/A   Clear
12:35 PM 87.8°F 31.0°C 66.2°F 19.0°C 49% 30.06 in / 1017.8 hPa 9.0 miles / 14.5 kilometers Calm Calm - N/A   Clear
12:55 PM 87.8°F 31.0°C 66.2°F 19.0°C 49% 30.06 in / 1017.8 hPa 9.0 miles / 14.5 kilometers Calm Calm - N/A   Clear
1:15 PM 87.8°F 31.0°C 66.2°F 19.0°C 49% 30.05 in / 1017.5 hPa 8.0 miles / 12.9 kilometers Calm Calm - N/A   Clear
1:35 PM 89.6°F 32.0°C 66.2°F 19.0°C 46% 30.04 in / 1017.2 hPa 9.0 miles / 14.5 kilometers Calm Calm - N/A   Clear
1:55 PM 89.6°F 32.0°C 66.2°F 19.0°C 46% 30.03 in / 1016.8 hPa 9.0 miles / 14.5 kilometers Calm Calm - N/A   Clear
2:15 PM 89.6°F 32.0°C 66.2°F 19.0°C 46% 30.02 in / 1016.5 hPa 8.0 miles / 12.9 kilometers North 4.6 mph / 7.4 km/h - N/A   Clear
2:55 PM 89.6°F 32.0°C 66.2°F 19.0°C 46% 30.00 in / 1015.8 hPa 9.0 miles / 14.5 kilometers North 3.5 mph / 5.6 km/h - N/A   Partly Cloudy
3:15 PM 91.4°F 33.0°C 66.2°F 19.0°C 43% 30.00 in / 1015.8 hPa 9.0 miles / 14.5 kilometers Calm Calm - N/A   Clear
3:55 PM 93.2°F 34.0°C 66.2°F 19.0°C 41% 29.99 in / 1015.5 hPa 9.0 miles / 14.5 kilometers Calm Calm - N/A   Clear
4:15 PM 93.2°F 34.0°C 66.2°F 19.0°C 41% 29.98 in / 1015.1 hPa 9.0 miles / 14.5 kilometers Calm Calm - N/A   Clear
4:35 PM 93.2°F 34.0°C 66.2°F 19.0°C 41% 29.98 in / 1015.1 hPa 9.0 miles / 14.5 kilometers North 8.1 mph / 13.0 km/h - N/A   Scattered Clouds
5:15 PM 89.6°F 32.0°C 68.0°F 20.0°C 49% 29.98 in / 1015.1 hPa 9.0 miles / 14.5 kilometers North 6.9 mph / 11.1 km/h - N/A   Overcast
5:35 PM 87.8°F 31.0°C 66.2°F 19.0°C 49% 29.98 in / 1015.1 hPa 9.0 miles / 14.5 kilometers Calm Calm - N/A   Overcast
5:55 PM 89.6°F 32.0°C 66.2°F 19.0°C 46% 29.98 in / 1015.1 hPa 10.0 miles / 16.1 kilometers Calm Calm - N/A   Mostly Cloudy
6:15 PM 87.8°F 31.0°C 68.0°F 20.0°C 52% 29.98 in / 1015.1 hPa 9.0 miles / 14.5 kilometers North 8.1 mph / 13.0 km/h - N/A   Scattered Clouds
6:55 PM 86.0°F 30.0°C 68.0°F 20.0°C 55% 29.99 in / 1015.5 hPa 10.0 miles / 16.1 kilometers North 6.9 mph / 11.1 km/h - N/A   Clear
7:15 PM 84.2°F 29.0°C 68.0°F 20.0°C 58% 29.99 in / 1015.5 hPa 10.0 miles / 16.1 kilometers North 11.5 mph / 18.5 km/h - N/A   Clear
7:35 PM 84.2°F 29.0°C 68.0°F 20.0°C 58% 29.99 in / 1015.5 hPa 10.0 miles / 16.1 kilometers NNE 8.1 mph / 13.0 km/h - N/A   Clear
7:55 PM 84.2°F 29.0°C 68.0°F 20.0°C 58% 30.00 in / 1015.8 hPa 10.0 miles / 16.1 kilometers NNE 8.1 mph / 13.0 km/h - N/A   Clear
8:35 PM 80.6°F 27.0°C 71.6°F 22.0°C 74% 30.01 in / 1016.1 hPa 10.0 miles / 16.1 kilometers NNE 10.4 mph / 16.7 km/h - N/A   Clear
8:55 PM 80.6°F 27.0°C 71.6°F 22.0°C 74% 30.02 in / 1016.5 hPa 10.0 miles / 16.1 kilometers NNE 10.4 mph / 16.7 km/h - N/A   Clear
9:15 PM 80.6°F 27.0°C 71.6°F 22.0°C 74% 30.02 in / 1016.5 hPa 9.0 miles / 14.5 kilometers NNE 10.4 mph / 16.7 km/h - N/A   Clear
9:35 PM 78.8°F 26.0°C 73.4°F 23.0°C 83% 30.03 in / 1016.8 hPa 10.0 miles / 16.1 kilometers NNE 8.1 mph / 13.0 km/h 13.8 mph / 22.2 km/h N/A   Clear
9:55 PM 78.8°F 26.0°C 73.4°F 23.0°C 83% 30.04 in / 1017.2 hPa 10.0 miles / 16.1 kilometers NNE 8.1 mph / 13.0 km/h - N/A   Clear
10:15 PM 78.8°F 26.0°C 73.4°F 23.0°C 83% 30.04 in / 1017.2 hPa 9.0 miles / 14.5 kilometers NNE 8.1 mph / 13.0 km/h - N/A   Clear
10:35 PM 78.8°F 26.0°C 73.4°F 23.0°C 83% 30.04 in / 1017.2 hPa 9.0 miles / 14.5 kilometers NNE 8.1 mph / 13.0 km/h - N/A   Clear
10:55 PM 78.8°F 26.0°C 73.4°F 23.0°C 83% 30.04 in / 1017.2 hPa 7.0 miles / 11.3 kilometers NNE 6.9 mph / 11.1 km/h - N/A   Clear
11:15 PM 78.8°F 26.0°C 73.4°F 23.0°C 83% 30.05 in / 1017.5 hPa 8.0 miles / 12.9 kilometers Calm Calm - N/A   Clear
11:35 PM 77.0°F 25.0°C 73.4°F 23.0°C 89% 30.05 in / 1017.5 hPa 7.0 miles / 11.3 kilometers Calm Calm - N/A   Clear
11:55 PM 77.0°F 25.0°C 73.4°F 23.0°C 89% 30.04 in / 1017.2 hPa 7.0 miles / 11.3 kilometers NNE 4.6 mph / 7.4 km/h - N/A   Clear

Astronomy

Sunrise: 07:21 AM (CDT) Moon Rise: 12:15 AM (CDT) 10 / 12
Sunset: 06:53 PM (CDT) Moon Set: 02:18 PM (CDT) 10 / 12
Moon Phase
Oct. 12 Oct. 19 Oct. 27 Nov. 04 Nov. 10
View the Full Star Chart!
Powered by Weather Underground, Inc.